CW4482 Weather Reports


Display with metric or nautical units.
time (UTC)temp
F
wind
direction
speed
MPH
gust
MPH
rain 1hr
in
rain 24hr
in
rain mn
in
humidity
%
barometer
mb
20260904101517 79 360 0.0 0.0 0.00 0.00 0.00 92 1012.6
20260904100018 79 360 0.0 0.0 0.00 0.00 0.00 92 1012.5
20260904094526 79 360 0.0 0.0 0.00 0.00 0.00 92 1012.5
20260904093050 79 360 0.0 0.0 0.00 0.00 0.00 92 1012.2
20260904091517 79 360 0.0 0.0 0.00 0.00 0.00 92 1012.2
20260904090020 79 360 0.0 0.0 0.00 0.00 0.00 92 1012.2
20260904084524 79 360 0.0 0.0 0.00 0.00 0.00 92 1012.3
20260904083029 79 360 0.0 0.0 0.00 0.00 0.00 92 1012.4
20260904081514 79 360 0.0 0.0 0.00 0.00 0.00 92 1012.5
20260904080044 79 360 0.0 0.0 0.00 0.00 0.00 92 1012.5
20260904074528 79 360 0.0 0.0 0.00 0.00 0.00 92 1012.5
20260904073015 79 360 0.0 0.0 0.00 0.00 0.00 92 1012.5
20260904071538 79 360 0.0 0.0 0.00 0.00 0.00 92 1012.4
20260904070026 79 360 0.0 0.0 0.00 0.00 0.00 92 1012.4
20260904064511 79 360 0.0 0.0 0.00 0.00 0.00 92 1012.5
20260904063018 79 360 0.0 0.0 0.00 0.00 0.00 91 1012.5
20260904061523 80 360 0.0 2.0 0.00 0.00 0.00 91 1012.5
20260904060012 79 360 0.0 0.0 0.00 0.00 0.00 91 1012.5
20260904054516 79 360 0.0 0.0 0.00 0.00 0.00 91 1012.5
20260904053023 79 360 0.0 0.0 0.00 0.00 0.00 91 1012.4
20260904051525 79 360 0.0 0.0 0.00 0.00 0.00 91 1012.6
20260904050014 80 360 0.0 0.0 0.00 0.00 0.00 91 1012.6
20260904044518 80 360 0.0 0.0 0.00 0.00 0.00 91 1012.6
20260904043022 80 360 0.0 2.0 0.00 0.00 0.00 91 1012.7
20260904041527 80 360 0.0 0.0 0.00 0.00 0.00 91 1012.7
20260904040015 80 360 0.0 3.0 0.00 0.00 0.00 91 1012.7
20260904034520 80 360 0.0 0.0 0.00 0.00 0.00 91 1012.6
20260904033024 80 360 0.0 3.0 0.00 0.00 0.00 91 1012.6
20260904031513 80 360 0.0 4.0 0.00 0.00 0.00 91 1012.6
20260904030017 80 360 1.0 5.0 0.00 0.00 0.00 91 1012.6
20260904024523 80 360 1.0 3.0 0.00 0.00 0.00 91 1012.5
20260904023047 80 360 0.0 2.0 0.00 0.00 0.00 91 1012.5
20260904021515 80 360 0.0 1.0 0.00 0.00 0.00 91 1012.4
20260904020020 80 360 0.0 0.0 0.00 0.00 0.00 90 1012.3
20260904014528 80 360 0.0 0.0 0.00 0.00 0.00 90 1012.1
20260904013028 80 360 0.0 0.0 0.00 0.00 0.00 90 1011.9
20260904011517 80 360 0.0 0.0 0.00 0.00 0.00 89 1011.8
20260904010019 81 360 0.0 0.0 0.00 0.00 0.00 89 1011.8
20260904004526 81 360 0.0 0.0 0.00 0.00 0.00 89 1011.8
20260904003029 81 360 0.0 0.0 0.00 0.00 0.00 89 1011.9
20260904001517 82 360 0.0 0.0 0.00 0.00 0.00 88 1012.0
20260904000041 82 360 0.0 0.0 0.00 0.00 0.00 88 1012.0
20260903234524 82 360 0.0 0.0 0.00 0.00 0.00 89 1012.0
20260903233031 82 360 0.0 0.0 0.00 0.00 0.00 89 1012.0
20260903231515 82 360 0.0 0.0 0.00 0.00 0.00 89 1011.7
20260903230021 82 360 0.0 1.0 0.00 0.00 0.00 89 1011.8
20260903224525 81 360 0.0 0.0 0.00 0.00 0.00 89 1012.2
20260903223033 81 360 0.0 0.0 0.00 0.00 0.00 89 1012.1
20260903221517 81 360 0.0 0.0 0.00 0.00 0.00 89 1012.0
20260903220024 80 360 0.0 0.0 0.00 0.00 0.00 89 1012.4
20260903214523 80 360 0.0 0.0 0.00 0.00 0.00 88 1012.8
20260903213027 80 360 0.0 2.0 0.00 0.00 0.00 87 1012.8
20260903211516 81 360 0.0 4.0 0.00 0.00 0.00 86 1013.0
20260903210027 81 360 1.0 3.0 0.00 0.00 0.00 85 1013.2
20260903204528 82 360 1.0 4.0 0.00 0.00 0.00 84 1013.2
20260903203015 83 360 0.0 4.0 0.00 0.00 0.00 80 1013.6
20260903201520 84 360 2.0 6.0 0.00 0.00 0.00 76 1013.2
20260903200020 84 360 3.0 5.0 0.00 0.00 0.00 77 1013.3
20260903194527 84 360 2.0 6.0 0.00 0.00 0.00 79 1013.0
20260903193012 84 360 4.0 8.0 0.00 0.00 0.00 78 1013.2
20260903191520 85 360 4.0 10.0 0.00 0.00 0.00 77 1013.2
20260903190023 87 360 4.0 9.0 0.00 0.00 0.00 74 1013.2
20260903184512 88 360 1.0 3.0 0.00 0.00 0.00 75 1013.5
20260903183014 88 360 1.0 4.0 0.00 0.00 0.00 77 1013.5
20260903181542 88 360 0.0 3.0 0.00 0.00 0.00 77 1013.3
20260903180026 87 360 1.0 4.0 0.00 0.00 0.00 80 1013.7
20260903174515 87 360 1.0 5.0 0.00 0.00 0.00 79 1014.4
20260903173019 87 360 1.0 4.0 0.00 0.00 0.00 84 1014.4
20260903171527 86 360 0.0 2.0 0.00 0.00 0.00 84 1014.3
20260903170012 85 360 1.0 4.0 0.00 0.00 0.00 87 1014.2
20260903164540 84 360 0.0 1.0 0.00 0.00 0.00 88 1014.4
20260903163044 82 360 1.0 3.0 0.00 0.00 0.00 87 1014.5
20260903161527 81 360 0.0 1.0 0.00 0.00 0.00 90 1014.6
20260903160012 81 360 0.0 2.0 0.00 0.00 0.00 91 1014.5
20260903154517 81 360 0.0 1.0 0.00 0.00 0.00 91 1014.3
20260903153040 81 360 0.0 2.0 0.00 0.00 0.00 92 1014.2
20260903151522 81 360 0.0 0.0 0.00 0.00 0.00 92 1014.1
20260903150028 81 360 0.0 0.0 0.00 0.00 0.00 92 1014.1
20260903144513 81 360 0.0 0.0 0.00 0.00 0.00 92 1014.1
20260903143020 81 360 0.0 1.0 0.00 0.00 0.00 92 1014.4
20260903141523 81 360 0.0 0.0 0.00 0.00 0.00 91 1014.6
20260903140046 81 360 0.0 0.0 0.00 0.00 0.00 90 1014.8
20260903134527 81 360 0.0 0.0 0.00 0.00 0.00 90 1014.6
20260903133010 81 360 0.0 0.0 0.00 0.00 0.00 90 1014.4
20260903131538 81 360 0.0 1.0 0.00 0.00 0.00 90 1014.5
20260903130040 81 360 0.0 1.0 0.00 0.00 0.00 90 1014.2
20260903124526 81 360 0.0 0.0 0.00 0.00 0.00 90 1013.8
20260903123029 81 360 0.0 0.0 0.00 0.00 0.00 90 1014.0
20260903121517 81 360 0.0 0.0 0.00 0.00 0.00 89 1013.5
20260903120023 81 360 0.0 0.0 0.00 0.00 0.00 89 1013.3
20260903114530 81 360 0.0 0.0 0.00 0.00 0.00 89 1013.7
20260903113011 82 360 0.0 3.0 0.00 0.00 0.00 88 1013.3
20260903111520 82 360 0.0 2.0 0.00 0.00 0.00 87 1013.2
20260903110024 82 360 0.0 1.0 0.00 0.00 0.00 86 1013.2
20260903104529 82 360 0.0 2.0 0.00 0.00 0.00 86 1013.2
20260903103028 82 360 1.0 3.0 0.00 0.00 0.00 85 1013.1